[[{"header":{"parameterUnit":"m.s-1","parameterCategory":1,"la1":30.2991,"la2":30.254,"lo1":-89.0895,"lo2":-89.0444,"dy":0.0017,"dx":0.0017,"nx":28,"ny":28,"refTime":"2024-06-17T03:00:00:Z","depth":0,"parameterNumber":2,"parameterNumberName":"U-component_of_WINDS"},"data":[0,0,0,0,0,0,0,0,0,0,0,0,0,0,0,0,0,0,0,0,0,0,0,0,0,0,0,0,0,0,0,0,0,0,0,0,0,0,0,0,0,0,0,0,0,0,0,0,0,0,0,0,0,0,0,0,0,0,-10.2537,-10.2538,0,-10.2655,-10.2656,-10.2657,-10.2516,-10.251,-10.2505,-10.25,-10.2615,-10.2623,-10.2631,0,0,0,0,0,0,0,0,0,0,0,0,0,-10.2183,-10.2191,-10.2537,-10.2538,-10.254,-10.2654,-10.2656,-10.2658,-10.2516,-10.251,-10.2504,-10.2498,-10.2612,-10.2622,-10.2631,0,0,0,0,0,0,0,0,0,0,0,0,0,-10.2323,-10.2193,-10.2537,-10.2483,-10.248,-10.2654,-10.2656,-10.2658,-10.2518,-10.251,-10.2502,-10.2495,-10.2609,-10.2621,-10.2633,-10.2863,0,0,-10.2669,-10.2674,0,0,0,0,0,0,0,0,-10.2315,-10.2336,-10.249,-10.2487,-10.2484,-10.2562,-10.2573,-10.2727,-10.252,-10.2503,-10.25,-10.2491,-10.2603,-10.2615,-10.2654,-10.2868,-10.2873,-10.267,-10.2677,-10.2682,-10.2686,0,0,0,0,0,0,0,-10.2305,-10.233,-10.2583,-10.2492,-10.2488,-10.2451,-10.2463,-10.2602,-10.2596,-10.2504,-10.2494,-10.251,-10.26,-10.2643,-10.2656,-10.2875,-10.267,-10.268,-10.2688,-10.2692,-10.3281,-10.3289,0,0,0,0,0,0,-10.2303,-10.2323,-10.2579,-10.2587,-10.2378,-10.2464,-10.2477,-10.2545,-10.2594,-10.2594,-10.2517,-10.2503,-10.2627,-10.2642,-10.266,-10.293,-10.2682,-10.2693,-10.27,-10.3273,-10.3283,-10.3292,0,0,0,0,0,0,-10.2296,-10.2327,-10.2575,-10.2452,-10.2481,-10.2479,-10.2557,-10.2551,-10.2594,-10.2604,-10.2601,-10.2562,-10.2621,-10.2643,-10.2813,-10.2932,-10.2699,-10.271,-10.3263,-10.3276,-10.3288,-10.3475,0,0,0,0,0,0,-10.2286,-10.2325,-10.2415,-10.2455,-10.2488,-10.2729,-10.2564,-10.2559,-10.2616,-10.2599,-10.2646,-10.2646,-10.2617,-10.2796,-10.2825,-10.2944,-10.2719,-10.3252,-10.3268,-10.3283,-10.3458,-10.3493,-10.3522,0,0,0,0,0,-10.2274,-10.2462,-10.242,-10.2452,-10.26,-10.2736,-10.2754,-10.2719,-10.2626,-10.2714,-10.272,-10.2644,-10.2916,-10.2815,-10.2846,-10.2971,-10.3244,-10.3264,-10.3282,-10.3444,-10.3486,-10.3521,0,0,0,0,0,0,-10.2433,-10.2466,-10.242,-10.2627,-10.268,-10.2712,-10.2822,-10.2765,-10.2844,-10.2825,-10.2776,-10.2787,-10.2968,-10.2987,-10.2874,-10.3195,-10.3064,-10.309,-10.3176,-10.3216,-10.3248,-10.3238,-10.2729,0,0,0,0,0,-10.2493,-10.2603,-10.2625,-10.2806,-10.2835,-10.2825,-10.2883,-10.2851,-10.2903,-10.2924,-10.2942,-10.2994,-10.309,-10.3155,-10.3244,-10.3461,-10.3467,-10.3562,-10.3594,-10.362,-10.3643,-10.3756,-10.3797,-10.3355,-10.3355,-10.3354,0,0,-10.2616,-10.2648,-10.272,-10.2839,-10.2876,-10.2988,-10.2844,-10.297,-10.3052,-10.2942,-10.3104,-10.312,-10.3174,-10.3368,-10.3455,-10.3389,-10.3767,-10.3645,-10.3666,-10.3674,-10.378,-10.3822,-10.3859,-10.3368,-10.3366,-10.3364,0,0,-10.2898,-10.2935,-10.3088,-10.3129,-10.3187,-10.3179,-10.3217,-10.3258,-10.3264,-10.3426,-10.3346,-10.3442,-10.361,-10.3651,-10.3694,-10.3992,-10.3924,-10.4023,-10.4188,-10.43,-10.4334,-10.4365,-10.4468,-10.4506,-10.4046,-10.4046,-10.4046,0,-10.3043,-10.3212,-10.3173,-10.3305,-10.3358,-10.3266,-10.3419,-10.346,-10.3544,-10.3582,-10.3508,-10.3716,-10.3747,-10.3948,-10.4021,-10.406,-10.4098,-10.4016,-10.4333,-10.4363,-10.4391,-10.4489,-10.4528,-10.4057,-10.4056,-10.4055,-10.4054,0,-10.3385,-10.3504,-10.362,-10.3705,-10.3772,-10.3914,-10.3894,-10.3966,-10.3929,-10.3928,-10.4093,-10.4127,-10.422,-10.4266,-10.4231,-10.4462,-10.4419,-10.4341,-10.4207,-10.4445,-10.4536,-10.4573,-10.4074,-10.407,-10.4066,-10.4063,0,0,-10.3769,-10.3832,-10.3875,-10.3911,-10.397,-10.4059,-10.4196,-10.4289,-10.435,-10.4412,-10.4523,-10.4668,-10.4595,-10.4644,-10.4612,-10.4711,-10.4941,-10.4619,-10.4619,-10.4675,-10.5194,-10.5251,-10.5295,-10.4898,-10.4905,-10.491,-10.5189,0,-10.4048,-10.4286,-10.4256,-10.4483,-10.459,-10.4505,-10.4623,-10.4671,-10.4674,-10.4763,-10.4765,-10.4868,-10.4766,-10.4794,-10.4888,-10.4893,-10.5044,-10.4873,-10.4997,-10.5002,-10.4983,-10.5343,-10.5403,-10.5665,-10.5224,-10.523,-10.5235,0,-10.4406,-10.4482,-10.472,-10.4761,-10.4804,-10.4912,-10.4994,-10.5082,-10.5133,-10.5128,-10.5184,-10.5135,-10.5269,-10.5136,-10.5319,-10.5203,-10.5252,-10.5263,-10.5272,-10.5279,-10.513,-10.5357,-10.5747,-10.5785,-10.5291,-10.5286,-10.5282,0,-10.4657,-10.4819,-10.4982,-10.5017,-10.5069,-10.5146,-10.5171,-10.5215,-10.5273,-10.5344,-10.538,-10.5467,-10.5513,-10.558,-10.5554,-10.5461,-10.5741,-10.5607,-10.5738,-10.5739,-10.5798,-10.5794,-10.6199,-10.5837,-10.5836,-10.5835,-10.5835,0,-10.4971,-10.5119,-10.5095,-10.5195,-10.5358,-10.5321,-10.5483,-10.5497,-10.5537,-10.5636,-10.5569,-10.5663,-10.5625,-10.5717,-10.5698,-10.585,-10.5873,-10.587,-10.5863,-10.5875,-10.5874,-10.5903,-10.5883,-10.5846,-10.5843,-10.5841,-10.584,0,-10.5278,-10.5268,-10.544,-10.5476,-10.5488,-10.5607,-10.5636,-10.5728,-10.5727,-10.5853,-10.5881,-10.5878,-10.5982,-10.5964,-10.6079,-10.6066,-10.6256,-10.6228,-10.6239,-10.6231,-10.6362,-10.6349,-10.6797,-10.6852,-10.6457,-10.6461,-10.6465,0,-10.5477,-10.5589,-10.5637,-10.57,-10.5731,-10.5833,-10.5891,-10.5859,-10.5922,-10.5989,-10.6073,-10.6172,-10.6248,-10.6418,-10.6425,-10.6512,-10.6483,-10.6634,-10.6495,-10.6503,-10.6481,-10.6473,-10.6483,-10.666,-10.6665,-10.6669,-10.6672,0,-10.583,-10.5819,-10.5907,-10.5995,-10.6067,-10.6133,-10.6193,-10.6247,-10.622,-10.6295,-10.6401,-10.6461,-10.6578,-10.6676,-10.6757,-10.678,-10.6721,-10.6716,-10.675,-10.6761,-10.6762,-10.676,-10.631,-10.6705,-10.6701,-10.6699,-10.6697,-10.6696,-10.6086,-10.6181,-10.623,-10.6329,-10.6371,-10.6428,-10.6516,-10.6527,-10.6615,-10.6709,-10.6685,-10.6805,-10.6852,-10.6955,-10.6988,-10.708,-10.7023,-10.7074,-10.7086,-10.7098,-10.7112,-10.6751,-10.7095,-10.7094,-10.7093,-10.7092,-10.7091,0,-10.6432,-10.646,-10.6552,-10.6638,-10.6716,-10.6657,-10.6719,-10.6788,-10.6894,-10.6944,-10.7022,-10.7143,-10.7237,-10.7252,-10.7341,-10.7411,-10.7386,-10.7435,-10.7428,-10.7433,-10.7159,-10.7119,-10.7454,-10.7454,-10.7454,-10.7454,-10.7454,-10.7454,-10.6621,-10.6778,-10.6774,-10.6949,-10.6975,-10.7093,-10.7133,-10.7185,-10.7224,-10.7363,-10.7441,-10.7451,-10.7486,-10.7577,-10.766,-10.7662,-10.7696,-10.7756,-10.7747,-10.7489,-10.7453,-10.7418,-10.738,-10.7764,-10.7765,-10.8012,-10.8015,-10.8017]},{"header":{"parameterUnit":"m.s-1","parameterCategory":1,"la1":30.2991,"la2":30.254,"lo1":-89.0895,"lo2":-89.0444,"dy":0.0017,"dx":0.0017,"nx":28,"ny":28,"refTime":"2024-06-17T03:00:00:Z","depth":0,"parameterNumber":3,"parameterNumberName":"V-component_of_WINDS"},"data":[0,0,0,0,0,0,0,0,0,0,0,0,0,0,0,0,0,0,0,0,0,0,0,0,0,0,0,0,0,0,0,0,0,0,0,0,0,0,0,0,0,0,0,0,0,0,0,0,0,0,0,0,0,0,0,0,0,0,2.4872,2.4873,0,2.4926,2.4927,2.4928,2.4933,2.4932,2.4932,2.4931,2.4984,2.4985,2.4987,0,0,0,0,0,0,0,0,0,0,0,0,0,2.4773,2.4775,2.4872,2.4873,2.4874,2.4926,2.4927,2.4928,2.4933,2.4932,2.4932,2.4931,2.4983,2.4985,2.4987,0,0,0,0,0,0,0,0,0,0,0,0,0,2.482,2.4775,2.4872,2.4883,2.4884,2.4926,2.4927,2.4928,2.4933,2.4932,2.4932,2.4931,2.4982,2.4985,2.4988,2.5022,0,0,2.4996,2.4998,0,0,0,0,0,0,0,0,2.4818,2.4824,2.4881,2.4882,2.4884,2.4922,2.4911,2.4959,2.4933,2.4915,2.4931,2.493,2.4964,2.4968,2.498,2.5024,2.5026,2.4997,2.4998,2.5,2.5,0,0,0,0,0,0,0,2.4814,2.4822,2.4894,2.4881,2.4883,2.4885,2.489,2.492,2.4943,2.4916,2.4917,2.4923,2.4964,2.4977,2.4981,2.5027,2.4997,2.4999,2.5001,2.5002,2.5105,2.5106,0,0,0,0,0,0,2.4809,2.4819,2.4892,2.4895,2.4848,2.4887,2.4894,2.4911,2.4943,2.4947,2.4924,2.4923,2.4972,2.4978,2.4983,2.5026,2.5,2.5002,2.5004,2.5104,2.5105,2.5106,0,0,0,0,0,0,2.4807,2.4816,2.489,2.4857,2.4867,2.489,2.4909,2.4912,2.4925,2.4948,2.4952,2.4933,2.4972,2.4979,2.5013,2.5028,2.5004,2.5006,2.5103,2.5104,2.5106,2.5112,0,0,0,0,0,0,2.4804,2.4815,2.4828,2.4858,2.4869,2.4919,2.491,2.4914,2.493,2.493,2.4958,2.4962,2.4972,2.5009,2.5016,2.5032,2.5008,2.5101,2.5103,2.5105,2.5111,2.5114,2.5117,0,0,0,0,0,2.4801,2.4827,2.4829,2.4838,2.4886,2.492,2.4926,2.4938,2.4931,2.4945,2.4961,2.4961,2.5026,2.5012,2.502,2.5037,2.51,2.5103,2.5105,2.511,2.5113,2.5117,0,0,0,0,0,0,2.4797,2.4831,2.4833,2.487,2.4892,2.4921,2.4938,2.4942,2.4965,2.4964,2.4978,2.4984,2.5018,2.5031,2.5015,2.5073,2.5062,2.5066,2.5063,2.5067,2.507,2.5066,2.5011,0,0,0,0,0,2.48,2.4826,2.4854,2.4883,2.4895,2.4915,2.493,2.4938,2.4961,2.497,2.4988,2.501,2.5036,2.5052,2.5077,2.5113,2.512,2.5129,2.5132,2.5134,2.5137,2.516,2.5164,2.5114,2.5114,2.5114,0,0,2.4807,2.4829,2.4844,2.4883,2.4902,2.4928,2.4922,2.495,2.4969,2.4974,2.5008,2.5022,2.5048,2.5084,2.51,2.5096,2.5153,2.5137,2.5139,2.5141,2.5163,2.5167,2.5172,2.5115,2.5115,2.5115,0,0,2.4834,2.4853,2.488,2.49,2.4928,2.4942,2.4948,2.4977,2.4988,2.5022,2.5027,2.505,2.5093,2.5112,2.5127,2.5164,2.5166,2.5172,2.5187,2.5208,2.5212,2.5216,2.523,2.5235,2.5175,2.5175,2.5175,0,2.4839,2.4879,2.4894,2.4922,2.494,2.4947,2.4976,2.4993,2.5028,2.5039,2.5034,2.509,2.5108,2.5149,2.5159,2.517,2.5179,2.5168,2.5211,2.5214,2.5218,2.5232,2.5237,2.5176,2.5176,2.5176,2.5176,0,2.4884,2.4913,2.4931,2.4967,2.4987,2.5014,2.5033,2.5052,2.5059,2.5073,2.5109,2.5131,2.5161,2.5171,2.5177,2.5214,2.5211,2.5208,2.5197,2.5223,2.5236,2.5242,2.5177,2.5176,2.5176,2.5176,0,0,2.4908,2.4953,2.496,2.4977,2.5011,2.5032,2.5061,2.5093,2.5109,2.5133,2.5158,2.5196,2.5194,2.5211,2.522,2.5239,2.5269,2.5234,2.5235,2.524,2.5312,2.5315,2.532,2.527,2.5271,2.5272,2.531,0,2.4939,2.4992,2.5007,2.5051,2.5078,2.5087,2.5113,2.5136,2.5151,2.5175,2.5191,2.5219,2.5214,2.5225,2.5244,2.5261,2.5283,2.5258,2.5294,2.5295,2.5287,2.5327,2.5329,2.5364,2.5316,2.5316,2.5317,0,2.4981,2.5009,2.5056,2.5089,2.5101,2.5123,2.5154,2.5178,2.5205,2.5215,2.5236,2.5243,2.5274,2.5263,2.5306,2.5289,2.5305,2.5316,2.5317,2.5321,2.5307,2.5332,2.5375,2.538,2.5325,2.5324,2.5324,0,2.4995,2.5043,2.5079,2.5093,2.5131,2.5147,2.5164,2.5191,2.5209,2.5236,2.5249,2.5278,2.5295,2.5318,2.5333,2.5323,2.5376,2.5365,2.5385,2.5385,2.5395,2.5394,2.5441,2.5405,2.5405,2.5405,2.5404,0,2.5028,2.5056,2.5086,2.5107,2.5141,2.5158,2.5191,2.5208,2.5232,2.5257,2.5266,2.529,2.5309,2.5335,2.5348,2.5383,2.539,2.5398,2.5401,2.5398,2.5397,2.5408,2.5406,2.5406,2.5406,2.5405,2.5405,0,2.5048,2.5068,2.5108,2.5142,2.5151,2.5175,2.5204,2.5225,2.5241,2.5274,2.5282,2.5307,2.5339,2.5357,2.5396,2.5405,2.5444,2.5445,2.5435,2.5436,2.5455,2.5453,2.5511,2.552,2.5477,2.5478,2.5478,0,2.5067,2.509,2.5128,2.5146,2.5164,2.5193,2.5213,2.5231,2.5252,2.5286,2.5304,2.5336,2.5363,2.5414,2.5435,2.5466,2.5468,2.5487,2.5473,2.5469,2.5469,2.5468,2.5471,2.5489,2.5489,2.5489,2.549,0,2.51,2.511,2.5139,2.5172,2.5196,2.5222,2.5248,2.5263,2.5286,2.5309,2.5342,2.5363,2.5405,2.5438,2.5471,2.5487,2.5493,2.5494,2.5501,2.5497,2.549,2.5495,2.5442,2.5493,2.5492,2.5492,2.5492,2.5492,2.5121,2.5143,2.5173,2.5206,2.5228,2.5253,2.5276,2.5296,2.5325,2.5361,2.537,2.5406,2.5434,2.548,2.5498,2.5526,2.5522,2.5531,2.5533,2.5535,2.5536,2.5486,2.5532,2.5532,2.5531,2.5531,2.5531,0,2.5155,2.5176,2.5206,2.5244,2.5269,2.5274,2.5304,2.5325,2.5356,2.5383,2.5411,2.545,2.5482,2.5508,2.5541,2.5559,2.5562,2.5567,2.5565,2.557,2.5537,2.5529,2.5563,2.5563,2.5563,2.5563,2.5563,2.5563,2.5176,2.5213,2.5227,2.5277,2.5297,2.5333,2.535,2.5373,2.5395,2.5439,2.5467,2.5484,2.551,2.5546,2.5576,2.5583,2.5595,2.5599,2.5606,2.5575,2.5572,2.5568,2.556,2.5602,2.5602,2.5637,2.5637,2.5637]}]]